Nassau, Bahamas

7:12 PM EDT on June 22, 2017 (GMT -0400)
Nassau International

Weather History for MYNN - October, 2013

Change the Weather History Date:

Monday, October 28, 2013

  Actual Average Record
Temperature  
Mean Temperature 80 °F -  
Max Temperature 86 °F 82 °F 89 °F (2011)
Min Temperature 75 °F 68 °F 69 °F (2008)
Cooling Degree Days 16    
Growing Degree Days 30 (Base 50)    
Moisture  
Dew Point 70 °F    
Average Humidity 71    
Maximum Humidity 78    
Minimum Humidity 60    
Precipitation  
Precipitation 0.00 in 0.08 in - ()
Sea Level Pressure  
Sea Level Pressure 30.08 in    
Wind  
Wind Speed 6 mph ()    
Max Wind Speed 15 mph    
Max Gust Speed -    
Visibility 6.6 miles    
Events      
Averages and records for this station are not official NWS values.
T = Trace of Precipitation, MM = Missing Value Source: Averaged Metar Reports

Daily Weather History Graph

Daily Weather History Graph

Search for Another Location

Airport or City:

Trip Planner

Search our weather history database for the weather conditions in past years. The results will help you decide how hot, cold, wet, or windy it might be!

Date:

Astronomy

Oct. 28, 2013 Rise Set
Actual Time 7:15 AM EDT 6:31 PM EDT
Civil Twilight 6:51 AM EDT 6:55 PM EDT
Nautical Twilight 6:24 AM EDT 7:22 PM EDT
Astronomical Twilight 5:57 AM EDT 7:48 PM EDT
Moon 1:42 AM EDT (10/28) 2:39 PM EDT (10/28)
Length of Visible Light 12h 03m
Length of Day
11h 16m
Waning Crescent, 34% of the Moon is Illuminated
Oct 28
Waning Crescent
Nov 3
New
Nov 10
First Quarter
Nov 17
Full
Nov 25
Last Quarter

Hourly Weather History & Observations

Time (EDT) Temp. Heat Index Dew Point Humidity Pressure Visibility Wind Dir Wind Speed Gust Speed Precip Events Conditions
12:00 AM 77.0 °F - 66.2 °F 69% 30.08 in 6.2 mi North - - N/A   Mostly Cloudy
1:00 AM 77.0 °F - 66.2 °F 69% 30.07 in 6.2 mi North - - N/A   Mostly Cloudy
3:00 AM 77.0 °F - 68.0 °F 74% 30.04 in 6.2 mi East 4.6 mph - N/A   Mostly Cloudy
4:00 AM 77.0 °F - 68.0 °F 74% 30.04 in 6.2 mi NE 3.5 mph - N/A   Mostly Cloudy
5:00 AM 77 °F - 68 °F 66% 30.04 in 8 mi ENE 3.5 mph - -   Scattered Clouds
5:00 AM 77.0 °F - 68.0 °F 74% 30.04 in 6.2 mi ENE 3.5 mph - N/A   Mostly Cloudy
6:00 AM 77.0 °F - 68.0 °F 74% 30.04 in 6.2 mi East 4.6 mph - N/A   Mostly Cloudy
7:00 AM 77.0 °F - 68.0 °F 74% 30.05 in 6.2 mi Variable 2.3 mph - N/A   Mostly Cloudy
8:00 AM 78 °F - 71 °F 74% 30.06 in 8 mi ENE 5.8 mph - -   Scattered Clouds
8:00 AM 78.8 °F - 71.6 °F 78% 30.06 in 6.2 mi ENE 5.8 mph - N/A   Mostly Cloudy
9:00 AM 78.8 °F - 69.8 °F 74% 30.08 in 6.2 mi NE 8.1 mph - N/A   Mostly Cloudy
10:00 AM 80.6 °F 83.9 °F 69.8 °F 70% 30.09 in 6.2 mi ENE 8.1 mph - N/A   Mostly Cloudy
11:00 AM 84 °F - 72 °F 61% 30.11 in 8 mi ENE 11.5 mph - -   Partly Cloudy
11:00 AM 84.2 °F 90.9 °F 73.4 °F 70% 30.11 in 6.2 mi ENE 11.5 mph - N/A   Mostly Cloudy
12:00 PM 82.4 °F 86.3 °F 69.8 °F 66% 30.10 in 6.2 mi East 9.2 mph - N/A   Mostly Cloudy
1:00 PM 80.6 °F 83.9 °F 69.8 °F 70% 30.09 in 6.2 mi East 10.4 mph - N/A   Mostly Cloudy
2:00 PM 83 °F - 72 °F 62% 30.07 in 8 mi East 9.2 mph - -   Mostly Cloudy
2:00 PM 82.4 °F 87.2 °F 71.6 °F 70% 30.07 in 6.2 mi East 9.2 mph - N/A   Mostly Cloudy
3:00 PM 82.4 °F 87.2 °F 71.6 °F 70% 30.07 in 6.2 mi ENE 15.0 mph - N/A   Mostly Cloudy
4:00 PM 82.4 °F 87.2 °F 71.6 °F 70% 30.06 in 6.2 mi ENE 11.5 mph - N/A   Mostly Cloudy
5:00 PM 83 °F - 71 °F 60% 30.07 in 8 mi East 9.2 mph - -   Mostly Cloudy
5:00 PM 84.2 °F 89.6 °F 71.6 °F 66% 30.07 in 6.2 mi East 9.2 mph - N/A   Mostly Cloudy
6:00 PM 80.6 °F 84.6 °F 71.6 °F 74% 30.07 in 6.2 mi East 11.5 mph - N/A   Scattered Clouds
7:00 PM 80.6 °F 84.6 °F 71.6 °F 74% 30.08 in 6.2 mi ENE 11.5 mph - N/A   Scattered Clouds
8:00 PM 80 °F - 71 °F 68% 30.09 in 8 mi East 13.8 mph - -   Partly Cloudy
8:00 PM 80.6 °F 84.6 °F 71.6 °F 74% 30.08 in 6.2 mi East 13.8 mph - N/A   Scattered Clouds
9:00 PM 78.8 °F - 71.6 °F 78% 30.11 in 6.2 mi East 6.9 mph - N/A   Scattered Clouds
10:00 PM 78.8 °F - 71.6 °F 78% 30.12 in 6.2 mi ENE 6.9 mph - N/A   Partly Cloudy
11:00 PM 79 °F - 72 °F 73% 30.11 in 8 mi NE 4.6 mph - -   Partly Cloudy
11:00 PM 78.8 °F - 71.6 °F 78% 30.11 in 6.2 mi NE 4.6 mph - N/A   Scattered Clouds